Location: Ago
(8.4667°N, 4.4167°E)
Time: 14:11:21
(UTC+00:00)

Centaur AC-119 - Pass Details

Date: 06 June 2020
Orbit: 243 x 14097 km, 26.9° (Epoch: 12 July)

Event Time Altitude Azimuth Distance (km) Brightness Sun altitude
Rises 18:59:14 0° 296° (WNW) 9,176 10.5 -14.3°
Reaches altitude 10° 19:08:36 10° 296° (WNW) 5,841 8.9 -16.4°
Maximum altitude 19:21:05 78° 211° (SSW) 884 3.2 -19.2°
Enters shadow 19:22:34 41° 132° (SE) 992 3.1 -19.5°
